sat.trackr.live / text

‹ back to catalog

STARLINK-5758

NORAD 56037 · 2023-042BD

PAYLOAD ACTIVE UNKNOWN

§ Identity

Operator
Country
US
Launch date
2023-03-24
Launch site
AFETR
Launch vehicle
Mass (kg)
RCS (m²)

Purposes: comms

External: N2YO · Heavens-Above · Gunter

§ Orbital elements

Epoch: 2026-05-25T04:50:09.182688Z

Period
94.27 min
Inclination
43.0058°
Eccentricity
0.0001758
Mean motion
15.27577739 rev/d
Perigee alt
481.8 km
Apogee alt
484.3 km
Semi-major
6,861.2 km
B*
1.5018e-5
RAAN
318.6506°
Arg perigee
272.0049°
Mean anomaly
88.0602°
Rev number
17,490

§ Raw data

STARLINK-57581 56037U 23042BD  26145.20149517  .00000151  00000+0  15018-4 0  99942 56037  43.0058 318.6506 0001758 272.0049  88.0602 15.27577739174905

JSON: /api/v1/satellites/56037 · /tle

For live sub-satellite position, see the globe view (requires WebGL).

§ Visibility from observer

Set your observer location to see the next 7 days of passes ≥ 10°. The values pass through the URL so the page stays shareable.

No JS? Fill the form by hand. The geolocation button needs JavaScript.